When you browse on this site, cookies collect data to enhance your experience and personalize the content and advertising you see.
Visit our Privacy Policy to learn more. By continuing to use the site, you agree to this use of cookies and data.
  • In Slovakia
  • List of Countries
  • For 7 days
  • Water Temperature
  • Satellite Maps
  • Weather Map
  • Weather Widgets
  • user-avatar
    Login

    Hourly Weather Dhaka

    Today, 20 January, Sunday

    Time Temperature Precipitation Wind Pressure Humidity
    00:00 +19°C° 0 mm 2 mps 760 mmHg 47%
    01:00 +19°C° 0 mm 2 mps 760 mmHg 48%
    02:00 +19°C° 0 mm 2 mps 760 mmHg 48%
    03:00 +18°C° 0 mm 2 mps 760 mmHg 48%
    04:00 +18°C° 0 mm 2 mps 761 mmHg 50%
    05:00 +18°C° 0 mm 2 mps 761 mmHg 51%
    06:00 +18°C° 0 mm 1 mps 760 mmHg 53%
    07:00 +20°C° 0 mm 1 mps 761 mmHg 50%
    08:00 +21°C° 0 mm 1 mps 761 mmHg 47%
    09:00 +23°C° 0 mm 2 mps 762 mmHg 44%
    10:00 +24°C° 0 mm 2 mps 761 mmHg 41%
    11:00 +25°C° 0 mm 2 mps 761 mmHg 37%
    12:00 +27°C° 0 mm 2 mps 761 mmHg 33%
    13:00 +27°C° 0 mm 2 mps 760 mmHg 32%
    14:00 +28°C° 0 mm 2 mps 759 mmHg 30%
    15:00 +28°C° 0 mm 2 mps 759 mmHg 28%
    16:00 +27°C° 0 mm 2 mps 759 mmHg 31%
    17:00 +26°C° 0 mm 1 mps 759 mmHg 34%
    18:00 +25°C° 0 mm 1 mps 759 mmHg 36%
    19:00 +24°C° 0 mm 1 mps 759 mmHg 38%
    20:00 +23°C° 0 mm 2 mps 759 mmHg 40%
    21:00 +23°C° 0 mm 2 mps 760 mmHg 42%
    22:00 +22°C° 0 mm 1 mps 760 mmHg 44%
    23:00 +22°C° 0 mm 1 mps 760 mmHg 45%

    Tomorrow, 21 January, Monday

    Time Temperature Precipitation Wind Pressure Humidity
    00:00 +21°C° 0 mm 1 mps 760 mmHg 47%
    01:00 +21°C° 0 mm 1 mps 760 mmHg 48%
    02:00 +21°C° 0 mm 1 mps 760 mmHg 49%
    03:00 +20°C° 0 mm 1 mps 760 mmHg 51%
    04:00 +20°C° 0 mm 1 mps 760 mmHg 53%
    05:00 +19°C° 0 mm 1 mps 760 mmHg 55%
    06:00 +19°C° 0 mm 1 mps 760 mmHg 57%
    07:00 +20°C° 0 mm 1 mps 761 mmHg 54%
    08:00 +22°C° 0 mm 1 mps 761 mmHg 51%
    09:00 +23°C° 0 mm 1 mps 762 mmHg 48%
    10:00 +25°C° 0 mm 1 mps 761 mmHg 45%
    11:00 +26°C° 0 mm 2 mps 761 mmHg 41%
    12:00 +28°C° 0 mm 2 mps 761 mmHg 37%
    13:00 +28°C° 0 mm 2 mps 760 mmHg 35%
    14:00 +29°C° 0 mm 2 mps 760 mmHg 34%
    15:00 +29°C° 0 mm 2 mps 759 mmHg 32%
    16:00 +28°C° 0 mm 2 mps 759 mmHg 34%
    17:00 +27°C° 0 mm 1 mps 759 mmHg 37%
    18:00 +26°C° 0 mm 1 mps 759 mmHg 40%
    19:00 +25°C° 0 mm 1 mps 759 mmHg 41%
    20:00 +24°C° 0 mm 1 mps 760 mmHg 43%
    21:00 +23°C° 0 mm 1 mps 760 mmHg 45%
    22:00 +23°C° 0 mm 1 mps 760 mmHg 46%
    23:00 +23°C° 0 mm 1 mps 760 mmHg 47%

    Day after tomorrow, 22 January, Tuesday

    Time Temperature Precipitation Wind Pressure Humidity
    00:00 +22°C° 0 mm 1 mps 760 mmHg 48%
    01:00 +22°C° 0 mm 1 mps 759 mmHg 49%
    02:00 +21°C° 0 mm 1 mps 759 mmHg 51%
    03:00 +20°C° 0 mm 2 mps 759 mmHg 52%
    04:00 +20°C° 0 mm 1 mps 759 mmHg 54%
    05:00 +20°C° 0 mm 1 mps 759 mmHg 56%
    06:00 +19°C° 0 mm 1 mps 759 mmHg 58%
    07:00 +21°C° 0 mm 1 mps 760 mmHg 54%
    08:00 +22°C° 0 mm 1 mps 761 mmHg 50%
    09:00 +22°C° 0 mm 0 mps 762 mmHg 46%
    10:00 +25°C° 0 mm 1 mps 762 mmHg 42%
    11:00 +27°C° 0 mm 1 mps 761 mmHg 38%
    12:00 +29°C° 0 mm 1 mps 761 mmHg 34%
    13:00 +29°C° 0 mm 1 mps 760 mmHg 32%
    14:00 +30°C° 0 mm 2 mps 760 mmHg 30%
    15:00 +30°C° 0 mm 2 mps 759 mmHg 28%
    16:00 +29°C° 0 mm 1 mps 759 mmHg 30%
    17:00 +27°C° 0 mm 1 mps 759 mmHg 33%
    18:00 +26°C° 0 mm 1 mps 759 mmHg 35%
    19:00 +25°C° 0 mm 1 mps 759 mmHg 37%
    20:00 +25°C° 0 mm 1 mps 760 mmHg 39%
    21:00 +24°C° 0 mm 1 mps 760 mmHg 40%
    22:00 +23°C° 0 mm 1 mps 760 mmHg 42%
    23:00 +23°C° 0 mm 1 mps 760 mmHg 43%

    23 January, Wednesday

    Time Temperature Precipitation Wind Pressure Humidity
    00:00 +22°C° 0 mm 1 mps 760 mmHg 45%
    01:00 +22°C° 0 mm 1 mps 760 mmHg 46%
    02:00 +21°C° 0 mm 1 mps 759 mmHg 48%
    03:00 +21°C° 0 mm 1 mps 759 mmHg 49%
    04:00 +21°C° 0 mm 1 mps 759 mmHg 51%
    05:00 +20°C° 0 mm 1 mps 760 mmHg 52%
    06:00 +20°C° 0 mm 1 mps 760 mmHg 54%
    07:00 +20°C° 0 mm 2 mps 760 mmHg 51%
    08:00 +21°C° 0 mm 2 mps 761 mmHg 47%
    09:00 +24°C° 0 mm 2 mps 762 mmHg 44%
    10:00 +25°C° 0 mm 2 mps 761 mmHg 39%
    11:00 +27°C° 0 mm 1 mps 761 mmHg 35%
    12:00 +29°C° 0 mm 1 mps 761 mmHg 30%
    13:00 +29°C° 0 mm 1 mps 760 mmHg 28%
    14:00 +30°C° 0 mm 2 mps 759 mmHg 27%
    15:00 +30°C° 0 mm 2 mps 758 mmHg 25%
    16:00 +29°C° 0 mm 1 mps 758 mmHg 27%
    17:00 +28°C° 0 mm 1 mps 758 mmHg 29%
    18:00 +26°C° 0 mm 1 mps 758 mmHg 32%
    19:00 +25°C° 0 mm 1 mps 759 mmHg 33%
    20:00 +25°C° 0 mm 1 mps 759 mmHg 35%
    21:00 +24°C° 0 mm 1 mps 760 mmHg 36%
    22:00 +24°C° 0 mm 1 mps 760 mmHg 38%
    23:00 +23°C° 0 mm 1 mps 760 mmHg 39%

    24 January, Thursday

    Time Temperature Precipitation Wind Pressure Humidity
    00:00 +23°C° 0 mm 1 mps 760 mmHg 40%
    01:00 +21°C° 0 mm 2 mps 760 mmHg 41%
    02:00 +21°C° 0 mm 2 mps 759 mmHg 43%
    03:00 +20°C° 0 mm 2 mps 759 mmHg 44%
    04:00 +20°C° 0 mm 2 mps 759 mmHg 45%
    05:00 +19°C° 0 mm 2 mps 760 mmHg 46%
    06:00 +20°C° 0 mm 1 mps 760 mmHg 47%
    07:00 +20°C° 0 mm 2 mps 761 mmHg 44%
    08:00 +23°C° 0 mm 2 mps 761 mmHg 41%
    09:00 +24°C° 0 mm 2 mps 762 mmHg 38%
    10:00 +26°C° 0 mm 2 mps 762 mmHg 35%
    11:00 +28°C° 0 mm 2 mps 762 mmHg 32%
    12:00 +30°C° 0 mm 2 mps 761 mmHg 28%
    13:00 +30°C° 0 mm 2 mps 760 mmHg 27%
    14:00 +31°C° 0 mm 2 mps 760 mmHg 26%
    15:00 +31°C° 0 mm 2 mps 759 mmHg 24%
    16:00 +30°C° 0 mm 2 mps 759 mmHg 27%
    17:00 +29°C° 0 mm 2 mps 759 mmHg 30%
    18:00 +27°C° 0 mm 2 mps 759 mmHg 33%
    19:00 +26°C° 0 mm 2 mps 759 mmHg 34%
    20:00 +26°C° 0 mm 2 mps 760 mmHg 36%
    21:00 +25°C° 0 mm 2 mps 760 mmHg 37%
    22:00 +24°C° 0 mm 2 mps 760 mmHg 38%
    23:00 +24°C° 0 mm 2 mps 760 mmHg 39%

    25 January, Friday

    Time Temperature Precipitation Wind Pressure Humidity
    00:00 +24°C° 0 mm 2 mps 760 mmHg 40%
    01:00 +23°C° 0 mm 2 mps 760 mmHg 41%
    02:00 +23°C° 0 mm 2 mps 759 mmHg 42%
    03:00 +21°C° 0 mm 2 mps 759 mmHg 44%
    04:00 +21°C° 0 mm 2 mps 759 mmHg 46%
    05:00 +20°C° 0 mm 2 mps 759 mmHg 48%
    06:00 +20°C° 0 mm 2 mps 759 mmHg 50%
    07:00 +21°C° 0 mm 2 mps 760 mmHg 48%
    08:00 +23°C° 0 mm 2 mps 761 mmHg 46%
    09:00 +25°C° 0 mm 2 mps 762 mmHg 43%
    10:00 +27°C° 0 mm 2 mps 762 mmHg 38%
    11:00 +29°C° 0 mm 2 mps 761 mmHg 34%
    12:00 +30°C° 0 mm 2 mps 761 mmHg 29%
    13:00 +31°C° 0 mm 3 mps 760 mmHg 27%
    14:00 +31°C° 0 mm 3 mps 759 mmHg 26%
    15:00 +33°C° 0 mm 3 mps 759 mmHg 25%
    16:00 +30°C° 0 mm 3 mps 759 mmHg 28%
    17:00 +29°C° 0 mm 3 mps 759 mmHg 31%
    18:00 +27°C° 0 mm 3 mps 759 mmHg 33%
    19:00 +26°C° 0 mm 3 mps 760 mmHg 34%
    20:00 +26°C° 0 mm 3 mps 760 mmHg 36%
    21:00 +25°C° 0 mm 3 mps 761 mmHg 37%
    22:00 +24°C° 0 mm 3 mps 760 mmHg 38%
    23:00 +22°C° 0 mm 3 mps 760 mmHg 39%
    Show more